CW6955 Weather Reports


time (UTC)temp
C
wind
direction
speed
KPH
gust
KPH
rain 1hr
cm
rain 24hr
cm
rain mn
cm
humidity
%
barometer
mb
20260507231816 13 246 1.6 4.8 0.00 0.03 0.00 85 1013.4
20260507231616 13 200 1.6 6.4 0.00 0.03 0.00 85 1013.4
20260507231415 13 173 1.6 6.4 0.00 0.03 0.00 85 1013.4
20260507231215 13 174 1.6 8.0 0.00 0.03 0.00 84 1013.3
20260507231016 13 174 1.6 8.0 0.00 0.03 0.00 84 1013.3
20260507230215 13 190 1.6 4.8 0.00 0.03 0.00 83 1013.3
20260507230016 13 198 1.6 4.8 0.00 0.03 0.00 83 1013.3
20260507225816 13 196 1.6 4.8 0.00 0.03 0.00 83 1013.3
20260507225415 13 191 3.2 6.4 0.00 0.03 0.00 83 1013.3
20260507225216 13 186 3.2 6.4 0.00 0.03 0.00 83 1013.4
20260507225016 13 177 3.2 6.4 0.00 0.03 0.00 83 1013.3
20260507224815 13 172 3.2 6.4 0.00 0.03 0.00 83 1013.3
20260507224616 13 171 4.8 8.0 0.00 0.03 0.00 83 1013.3
20260507224416 13 168 4.8 9.7 0.00 0.03 0.00 84 1013.3
20260507224215 13 163 6.4 9.7 0.00 0.03 0.00 84 1013.2
20260507224017 13 160 6.4 9.7 0.00 0.03 0.00 84 1013.2
20260507223816 13 159 6.4 9.7 0.00 0.03 0.00 84 1013.2
20260507223615 13 158 6.4 11.3 0.00 0.03 0.00 84 1013.2
20260507223417 13 163 6.4 11.3 0.00 0.03 0.00 84 1013.2
20260507223216 13 167 8.0 11.3 0.00 0.03 0.00 84 1013.2
20260507223017 13 169 8.0 12.9 0.00 0.03 0.00 85 1013.2
20260507222816 13 167 8.0 16.1 0.00 0.03 0.00 85 1013.2
20260507222616 13 165 8.0 16.1 0.00 0.03 0.00 85 1013.2
20260507222416 13 158 6.4 16.1 0.00 0.03 0.00 85 1013.2
20260507222016 13 155 6.4 16.1 0.00 0.03 0.00 85 1013.2
20260507221817 13 155 4.8 14.5 0.00 0.03 0.00 85 1013.1
20260507221616 13 156 4.8 12.9 0.00 0.03 0.00 85 1013.2
20260507221415 13 157 3.2 12.9 0.00 0.03 0.00 85 1013.2
20260507221218 13 156 3.2 12.9 0.00 0.03 0.00 86 1013.2
20260507221015 13 157 3.2 9.7 0.00 0.03 0.00 86 1013.2
20260507220615 13 165 3.2 6.4 0.03 0.03 0.00 86 1013.1
20260507220416 13 169 4.8 8.0 0.03 0.03 0.00 86 1013.2
20260507220017 13 174 4.8 8.0 0.03 0.03 0.00 86 1013.2
20260507215815 13 177 4.8 9.7 0.03 0.03 0.03 86 1013.1
20260507215615 13 182 6.4 9.7 0.03 0.03 0.03 86 1013.1
20260507215217 13 182 6.4 11.3 0.03 0.03 0.03 86 1013.1
20260507215016 13 183 4.8 11.3 0.03 0.03 0.03 86 1013.1
20260507214815 13 183 4.8 12.9 0.03 0.03 0.03 86 1013.1
20260507214616 13 182 4.8 12.9 0.03 0.03 0.03 86 1013.0
20260507214416 13 184 3.2 12.9 0.03 0.03 0.03 86 1013.0
20260507214017 13 183 3.2 12.9 0.03 0.03 0.03 86 1013.0
20260507213616 13 176 4.8 9.7 0.03 0.03 0.03 85 1013.0
20260507213416 13 173 4.8 9.7 0.03 0.03 0.03 85 1013.0
20260507213215 13 168 4.8 8.0 0.03 0.03 0.03 85 1012.9
20260507213015 13 165 6.4 9.7 0.03 0.03 0.03 84 1012.9
20260507212817 13 164 6.4 9.7 0.03 0.03 0.03 84 1012.9
20260507212415 13 157 6.4 14.5 0.03 0.03 0.03 83 1012.8
20260507212216 13 157 6.4 14.5 0.03 0.03 0.03 83 1012.9
20260507212016 13 160 6.4 14.5 0.03 0.03 0.03 82 1012.8
20260507211815 13 161 6.4 14.5 0.03 0.03 0.03 82 1012.8
20260507211615 13 163 6.4 14.5 0.03 0.03 0.03 82 1012.8
20260507211416 13 164 6.4 12.9 0.03 0.03 0.03 82 1012.8
20260507211216 13 164 6.4 14.5 0.03 0.03 0.03 82 1012.8
20260507211015 13 163 6.4 14.5 0.03 0.03 0.03 82 1012.8
20260507210815 14 161 6.4 16.1 0.03 0.03 0.03 81 1012.7
20260507210615 14 162 6.4 16.1 0.00 0.00 0.00 81 1012.8
20260507210416 14 163 6.4 16.1 0.00 0.00 0.00 81 1012.7
20260507210216 14 165 6.4 16.1 0.00 0.00 0.00 81 1012.7
20260507210016 14 168 6.4 16.1 0.00 0.00 0.00 81 1012.7
20260507205815 14 171 8.0 14.5 0.00 0.00 0.00 81 1012.7
20260507205615 14 175 8.0 12.9 0.00 0.00 0.00 81 1012.7
20260507205216 14 181 6.4 12.9 0.00 0.00 0.00 81 1012.7
20260507205016 13 182 6.4 12.9 0.00 0.00 0.00 82 1012.7
20260507204816 13 185 4.8 12.9 0.00 0.00 0.00 82 1012.7
20260507204615 13 188 4.8 12.9 0.00 0.00 0.00 82 1012.7
20260507204415 13 193 3.2 11.3 0.00 0.00 0.00 83 1012.6
20260507204215 13 198 3.2 11.3 0.00 0.00 0.00 83 1012.7
20260507204016 13 203 1.6 11.3 0.00 0.00 0.00 83 1012.7
20260507203818 13 207 1.6 9.7 0.00 0.00 0.00 83 1012.7
20260507203615 13 210 0.0 8.0 0.00 0.00 0.00 83 1012.7
20260507203017 13 217 0.0 3.2 0.00 0.00 0.00 83 1012.7
20260507202815 13 0 0.0 0.0 0.00 0.00 0.00 82 1012.8
20260507202615 13 0 0.0 0.0 0.00 0.00 0.00 82 1012.8
20260507202416 13 0 0.0 0.0 0.00 0.00 0.00 82 1012.7
20260507202216 13 0 0.0 0.0 0.00 0.00 0.00 82 1012.7
20260507202017 13 0 0.0 0.0 0.00 0.00 0.00 83 1012.7
20260507201815 13 0 0.0 0.0 0.00 0.00 0.00 83 1012.7
20260507201416 13 0 0.0 0.0 0.00 0.00 0.00 84 1012.7
20260507201215 13 0 0.0 0.0 0.00 0.00 0.00 84 1012.7
20260507201015 13 163 0.0 1.6 0.00 0.00 0.00 85 1012.7
20260507200815 13 163 0.0 1.6 0.00 0.00 0.00 84 1012.7
20260507200416 13 163 0.0 1.6 0.00 0.00 0.00 84 1012.6
20260507200215 13 163 0.0 1.6 0.00 0.00 0.00 84 1012.6
20260507200016 13 0 0.0 0.0 0.00 0.00 0.00 84 1012.6
20260507195816 13 0 0.0 0.0 0.00 0.00 0.00 83 1012.6
20260507195615 13 0 0.0 0.0 0.00 0.00 0.00 83 1012.5
20260507195415 13 0 0.0 0.0 0.00 0.00 0.00 83 1012.5
20260507195215 13 0 1.6 0.0 0.00 0.00 0.00 82 1012.5
20260507195016 13 152 1.6 3.2 0.00 0.00 0.00 82 1012.5
20260507194816 14 153 1.6 3.2 0.00 0.00 0.00 82 1012.4
20260507194615 14 152 3.2 4.8 0.00 0.00 0.00 81 1012.4
20260507194416 14 146 3.2 6.4 0.00 0.00 0.00 82 1012.5
20260507194215 14 142 3.2 6.4 0.00 0.00 0.00 81 1012.5
20260507193815 14 145 3.2 6.4 0.00 0.00 0.00 81 1012.5
20260507193415 14 151 3.2 6.4 0.00 0.00 0.00 81 1012.4
20260507193215 14 157 3.2 6.4 0.00 0.00 0.00 80 1012.4
20260507193015 14 164 3.2 6.4 0.00 0.00 0.00 80 1012.4
20260507192815 14 175 3.2 6.4 0.00 0.00 0.00 80 1012.3
20260507192615 14 190 3.2 6.4 0.00 0.00 0.00 80 1012.4
20260507192016 14 243 6.4 8.0 0.00 0.00 0.00 79 1012.3
20260507191815 14 254 6.4 9.7 0.00 0.00 0.00 79 1012.3
20260507191615 14 261 8.0 12.9 0.00 0.00 0.00 79 1012.3
20260507191415 14 264 8.0 16.1 0.00 0.00 0.00 79 1012.2
20260507191215 14 266 6.4 16.1 0.00 0.00 0.00 79 1012.2
20260507191016 14 267 6.4 16.1 0.00 0.00 0.00 79 1012.2
20260507190815 14 267 6.4 16.1 0.00 0.00 0.00 79 1012.2
20260507190615 15 263 4.8 16.1 0.00 0.00 0.00 79 1012.2
20260507190415 15 256 4.8 12.9 0.00 0.00 0.00 78 1012.2
20260507190216 15 244 4.8 11.3 0.00 0.00 0.00 78 1012.1
20260507190016 15 227 4.8 12.9 0.00 0.00 0.00 76 1012.1
20260507185815 15 224 4.8 12.9 0.00 0.00 0.00 75 1012.2
20260507185615 15 223 4.8 12.9 0.00 0.00 0.00 73 1012.2
20260507185415 15 231 4.8 17.7 0.00 0.00 0.00 72 1012.1
20260507185215 15 234 4.8 17.7 0.00 0.00 0.00 70 1012.1
20260507185015 15 230 4.8 17.7 0.00 0.00 0.00 69 1012.1
20260507184815 16 220 4.8 17.7 0.00 0.00 0.00 68 1012.0
20260507184615 16 209 4.8 17.7 0.00 0.00 0.00 66 1012.1
20260507184416 16 185 4.8 9.7 0.00 0.00 0.00 64 1012.0
20260507184219 16 167 3.2 8.0 0.00 0.00 0.00 63 1011.8
20260507184015 16 161 3.2 8.0 0.00 0.00 0.00 63 1011.7
20260507183815 16 156 3.2 8.0 0.00 0.00 0.00 63 1011.7
20260507183615 16 151 1.6 8.0 0.00 0.00 0.00 63 1011.6
20260507183416 16 146 1.6 8.0 0.00 0.00 0.00 63 1011.6
20260507183215 16 136 1.6 8.0 0.00 0.00 0.00 64 1011.7
20260507183016 16 128 1.6 6.4 0.00 0.00 0.00 64 1011.6
20260507182815 16 126 1.6 6.4 0.00 0.00 0.00 64 1011.6
20260507182615 16 126 3.2 6.4 0.00 0.00 0.00 64 1011.6
20260507182415 16 128 3.2 6.4 0.00 0.00 0.00 66 1011.5
20260507182215 16 133 3.2 6.4 0.00 0.00 0.00 66 1011.5
20260507182015 16 131 3.2 6.4 0.00 0.00 0.00 67 1011.5
20260507181415 15 131 1.6 6.4 0.00 0.00 0.00 68 1011.4
20260507181215 15 133 1.6 4.8 0.00 0.00 0.00 68 1011.5
20260507181015 15 132 1.6 4.8 0.00 0.00 0.00 69 1011.5
20260507180815 15 57 1.6 6.4 0.00 0.00 0.00 69 1011.4
20260507180615 15 308 1.6 6.4 0.00 0.00 0.00 69 1011.4
20260507180415 15 303 3.2 6.4 0.00 0.00 0.00 69 1011.4
20260507180015 15 285 4.8 6.4 0.00 0.00 0.00 68 1011.3
20260507175815 15 285 4.8 6.4 0.00 0.00 0.00 68 1011.3
20260507175615 15 290 6.4 6.4 0.00 0.00 0.00 68 1011.3
20260507175415 16 295 6.4 11.3 0.00 0.00 0.00 67 1011.2
20260507175215 16 296 8.0 11.3 0.00 0.00 0.00 66 1011.3
20260507175015 16 297 8.0 11.3 0.00 0.00 0.00 65 1011.2
20260507174615 16 290 9.7 17.7 0.00 0.00 0.00 63 1011.2
20260507174415 16 284 11.3 17.7 0.00 0.00 0.00 62 1011.2
20260507174015 16 278 11.3 17.7 0.00 0.00 0.00 60 1011.2
20260507173815 16 275 12.9 17.7 0.00 0.00 0.00 60 1011.2
20260507173615 16 274 12.9 17.7 0.00 0.00 0.00 58 1011.1
20260507173416 17 273 14.5 17.7 0.00 0.00 0.00 58 1011.1
20260507173015 17 274 17.7 30.6 0.00 0.00 0.00 56 1011.2
20260507172815 17 273 17.7 30.6 0.00 0.00 0.00 55 1011.3
20260507172615 17 271 17.7 30.6 0.00 0.00 0.00 55 1011.2
20260507172215 17 270 14.5 29.0 0.00 0.00 0.00 55 1011.1
20260507172015 17 269 14.5 29.0 0.00 0.00 0.00 55 1011.1
20260507171815 17 266 12.9 29.0 0.00 0.00 0.00 55 1011.0
20260507171615 17 265 11.3 27.4 0.00 0.00 0.00 55 1010.9
20260507171415 17 262 9.7 27.4 0.00 0.00 0.00 56 1011.0
20260507171216 18 260 8.0 27.4 0.00 0.00 0.00 56 1011.1
20260507171015 18 259 6.4 27.4 0.00 0.00 0.00 55 1011.1
20260507170815 18 258 4.8 27.4 0.00 0.00 0.00 54 1011.0
20260507170615 18 253 4.8 27.4 0.00 0.00 0.00 55 1010.9
20260507170415 18 201 4.8 20.9 0.00 0.00 0.00 55 1010.9
20260507170215 18 136 4.8 9.7 0.00 0.00 0.00 54 1010.8
20260507170015 18 137 6.4 11.3 0.00 0.00 0.00 53 1010.7
20260507165815 18 139 6.4 11.3 0.00 0.00 0.00 53 1010.6
20260507165615 19 143 8.0 12.9 0.00 0.00 0.00 52 1010.6
20260507165415 19 144 8.0 16.1 0.00 0.00 0.00 52 1010.6
20260507165015 19 139 8.0 16.1 0.00 0.00 0.00 52 1010.5
20260507164815 19 140 8.0 16.1 0.00 0.00 0.00 52 1010.5
20260507164615 19 138 8.0 16.1 0.00 0.00 0.00 52 1010.5
20260507164415 19 139 8.0 14.5 0.00 0.00 0.00 51 1010.4
20260507164215 19 141 8.0 14.5 0.00 0.00 0.00 51 1010.3
20260507163815 19 141 8.0 14.5 0.00 0.00 0.00 50 1010.3
20260507163615 19 138 8.0 16.1 0.00 0.00 0.00 50 1010.3
20260507163415 19 134 9.7 16.1 0.00 0.00 0.00 50 1010.2
20260507163215 19 134 9.7 16.1 0.00 0.00 0.00 50 1010.2
20260507163015 20 130 8.0 16.1 0.00 0.00 0.00 50 1010.2
20260507162815 20 126 8.0 16.1 0.00 0.00 0.00 50 1010.1
20260507162615 20 126 8.0 16.1 0.00 0.00 0.00 49 1010.2
20260507162415 20 126 6.4 16.1 0.00 0.00 0.00 49 1010.1
20260507162215 20 123 6.4 16.1 0.00 0.00 0.00 49 1010.1
20260507162015 20 126 6.4 17.7 0.00 0.00 0.00 49 1010.1
20260507161815 20 128 8.0 17.7 0.00 0.00 0.00 49 1010.2
20260507161615 20 125 8.0 17.7 0.00 0.00 0.00 50 1010.2
20260507161415 20 130 8.0 17.7 0.00 0.00 0.00 50 1010.2
20260507161215 20 133 8.0 17.7 0.00 0.00 0.00 49 1010.3
20260507161015 20 137 8.0 17.7 0.00 0.00 0.00 49 1010.3
20260507160615 20 144 8.0 17.7 0.00 0.00 0.00 48 1010.2
20260507160415 20 144 8.0 17.7 0.00 0.00 0.00 49 1010.2
20260507160215 20 137 8.0 17.7 0.00 0.00 0.00 49 1010.2
20260507160015 20 131 8.0 14.5 0.00 0.00 0.00 50 1010.3
20260507155815 20 134 8.0 14.5 0.00 0.00 0.00 51 1010.2
20260507155615 20 135 8.0 16.1 0.00 0.00 0.00 51 1010.2
20260507155415 20 136 9.7 16.1 0.00 0.00 0.00 50 1010.2
20260507155214 20 138 9.7 16.1 0.00 0.00 0.00 50 1010.3
20260507155015 20 140 9.7 17.7 0.00 0.00 0.00 51 1010.3
20260507154815 20 133 9.7 17.7 0.00 0.00 0.00 50 1010.3
20260507154615 20 129 9.7 17.7 0.00 0.00 0.00 50 1010.3
20260507154215 20 135 8.0 19.3 0.00 0.00 0.00 50 1010.3
20260507154015 20 140 8.0 20.9 0.00 0.00 0.00 50 1010.3
20260507153815 20 146 8.0 20.9 0.00 0.00 0.00 50 1010.4
20260507153614 21 151 6.4 20.9 0.00 0.00 0.00 49 1010.3
20260507153415 21 153 6.4 20.9 0.00 0.00 0.00 49 1010.4
20260507153215 21 153 6.4 20.9 0.00 0.00 0.00 49 1010.4
20260507153015 21 149 6.4 16.1 0.00 0.00 0.00 49 1010.4
20260507152815 21 152 6.4 17.7 0.00 0.00 0.00 50 1010.4
20260507152214 20 145 6.4 17.7 0.00 0.00 0.00 50 1010.4
20260507152015 20 145 6.4 17.7 0.00 0.00 0.00 52 1010.4
20260507151815 20 137 8.0 12.9 0.00 0.00 0.00 52 1010.3
20260507151615 20 129 8.0 17.7 0.00 0.00 0.00 52 1010.3
20260507151416 20 128 8.0 17.7 0.00 0.00 0.00 51 1010.3
20260507151215 20 127 6.4 17.7 0.00 0.00 0.00 52 1010.4
20260507151015 20 130 6.4 17.7 0.00 0.00 0.00 52 1010.4
20260507150814 20 131 6.4 17.7 0.00 0.00 0.00 53 1010.3
20260507150415 20 127 4.8 17.7 0.00 0.00 0.00 54 1010.4
20260507150215 20 134 6.4 12.9 0.00 0.00 0.00 54 1010.4
20260507150015 20 133 6.4 12.9 0.00 0.00 0.00 54 1010.5
20260507145615 20 161 6.4 14.5 0.00 0.00 0.00 52 1010.5
20260507145415 20 164 6.4 14.5 0.00 0.00 0.00 53 1010.5
20260507145215 20 162 6.4 14.5 0.00 0.00 0.00 52 1010.5
20260507145015 20 152 6.4 14.5 0.00 0.00 0.00 53 1010.5
20260507144815 20 138 6.4 14.5 0.00 0.00 0.00 52 1010.5
20260507144615 20 134 6.4 14.5 0.00 0.00 0.00 54 1010.6
20260507144215 20 141 6.4 12.9 0.00 0.00 0.00 54 1010.6
20260507143815 20 158 6.4 14.5 0.00 0.00 0.00 55 1010.6
20260507143615 20 158 6.4 14.5 0.00 0.00 0.00 57 1010.6
20260507143416 20 152 6.4 14.5 0.00 0.00 0.00 55 1010.6
20260507143215 20 143 6.4 14.5 0.00 0.00 0.00 55 1010.6
20260507143015 20 139 6.4 14.5 0.00 0.00 0.00 54 1010.6
20260507142816 20 141 6.4 14.5 0.00 0.00 0.00 55 1010.6
20260507142615 20 138 6.4 12.9 0.00 0.00 0.00 55 1010.6
20260507142415 20 138 6.4 12.9 0.00 0.00 0.00 54 1010.6
20260507142215 19 142 6.4 12.9 0.00 0.00 0.00 54 1010.7
20260507142015 19 137 6.4 12.9 0.00 0.00 0.00 54 1010.7
20260507141814 20 138 6.4 12.9 0.00 0.00 0.00 53 1010.7
20260507141615 20 138 6.4 12.9 0.00 0.00 0.00 54 1010.8
20260507141215 20 148 6.4 16.1 0.00 0.00 0.00 54 1010.8
20260507141015 20 153 6.4 16.1 0.00 0.00 0.00 54 1010.8
20260507140814 20 154 6.4 16.1 0.00 0.00 0.00 53 1010.8
20260507140614 20 155 6.4 16.1 0.00 0.00 0.00 52 1010.8
20260507140415 20 147 6.4 16.1 0.00 0.00 0.00 53 1010.8
20260507140215 20 137 6.4 14.5 0.00 0.00 0.00 52 1010.8
20260507140015 20 138 6.4 14.5 0.00 0.00 0.00 53 1010.7
20260507135815 20 133 6.4 14.5 0.00 0.00 0.00 55 1010.8
20260507135614 20 135 6.4 12.9 0.00 0.00 0.00 53 1010.7
20260507135414 20 146 6.4 11.3 0.00 0.00 0.00 54 1010.8
20260507135215 19 151 4.8 16.1 0.00 0.00 0.00 53 1010.8
20260507135015 20 157 4.8 16.1 0.00 0.00 0.00 53 1010.8
20260507134815 20 159 4.8 16.1 0.00 0.00 0.00 53 1010.8
20260507134415 20 154 3.2 16.1 0.00 0.00 0.00 53 1010.8
20260507134214 20 154 3.2 12.9 0.00 0.00 0.00 54 1010.8
20260507134015 20 149 3.2 12.9 0.00 0.00 0.00 53 1010.8
20260507133815 20 164 3.2 12.9 0.00 0.00 0.00 54 1010.8
20260507133615 20 189 3.2 12.9 0.00 0.00 0.00 54 1010.8
20260507133415 20 234 3.2 9.7 0.00 0.00 0.00 55 1010.9
20260507133214 20 246 4.8 6.4 0.00 0.00 0.00 54 1010.8
20260507133015 19 245 4.8 6.4 0.00 0.00 0.00 55 1010.9
20260507132815 19 225 4.8 8.0 0.00 0.00 0.00 54 1010.9
20260507132615 19 199 4.8 12.9 0.00 0.00 0.00 54 1010.9
20260507132214 19 181 3.2 12.9 0.00 0.00 0.00 54 1010.9
20260507131615 19 203 3.2 9.7 0.00 0.00 0.00 55 1010.9
20260507131416 19 212 4.8 8.0 0.00 0.00 0.00 56 1010.9
20260507131215 19 213 4.8 8.0 0.00 0.00 0.00 54 1010.9
20260507131014 19 203 4.8 12.9 0.00 0.00 0.00 53 1010.9
20260507130815 19 189 4.8 14.5 0.00 0.00 0.00 54 1011.0
20260507130614 19 189 3.2 14.5 0.00 0.00 0.00 55 1010.9
20260507130215 19 191 3.2 14.5 0.00 0.00 0.00 56 1011.0
20260507130015 19 193 4.8 14.5 0.00 0.00 0.00 55 1011.0
20260507125815 19 194 4.8 11.3 0.00 0.00 0.00 54 1011.0
20260507125415 19 188 4.8 11.3 0.00 0.00 0.00 53 1011.0
20260507125210 20 182 4.8 11.3 0.00 0.00 0.00 52 1011.0
20260507125015 20 175 4.8 11.3 0.00 0.00 0.00 53 1011.0
20260507124814 20 173 4.8 11.3 0.00 0.00 0.00 54 1011.0
20260507124615 20 175 4.8 11.3 0.00 0.00 0.00 54 1011.1
20260507124415 20 173 4.8 11.3 0.00 0.00 0.00 53 1011.1
20260507124215 19 182 4.8 11.3 0.00 0.00 0.00 56 1011.0
20260507124016 19 199 4.8 9.7 0.00 0.00 0.00 55 1011.0
20260507123815 19 207 4.8 9.7 0.00 0.00 0.00 55 1011.1
20260507123615 19 215 4.8 12.9 0.00 0.00 0.00 55 1011.1
20260507123415 19 217 4.8 12.9 0.00 0.00 0.00 55 1011.2
20260507123014 19 197 4.8 12.9 0.00 0.00 0.00 54 1011.2
20260507122815 19 199 6.4 12.9 0.00 0.00 0.00 54 1011.2
20260507122615 19 196 6.4 11.3 0.00 0.00 0.00 56 1011.2
20260507122214 19 203 6.4 14.5 0.00 0.00 0.00 55 1011.2
20260507121614 19 196 6.4 14.5 0.00 0.00 0.00 58 1011.2
20260507121415 19 193 6.4 14.5 0.00 0.00 0.00 56 1011.3
20260507121215 18 196 6.4 14.5 0.00 0.00 0.00 55 1011.3
20260507121014 19 183 6.4 14.5 0.00 0.00 0.00 55 1011.3
20260507120814 19 205 6.4 14.5 0.00 0.00 0.00 58 1011.3
20260507120614 19 217 6.4 14.5 0.00 0.00 0.00 55 1011.3
20260507120415 19 221 6.4 14.5 0.00 0.00 0.00 55 1011.3
20260507120215 19 225 6.4 14.5 0.00 0.00 0.00 56 1011.3
20260507115814 19 225 6.4 14.5 0.00 0.00 0.00 56 1011.4
20260507115614 18 226 6.4 14.5 0.00 0.00 0.00 57 1011.4
20260507115415 18 229 6.4 14.5 0.00 0.00 0.00 57 1011.4
20260507115215 19 231 6.4 14.5 0.00 0.00 0.00 58 1011.4
20260507115015 19 222 6.4 14.5 0.00 0.00 0.00 58 1011.4
20260507114615 19 221 6.4 14.5 0.00 0.00 0.00 60 1011.5
20260507114015 18 221 8.0 14.5 0.00 0.00 0.00 60 1011.5
20260507113815 18 216 8.0 16.1 0.00 0.00 0.00 59 1011.5
20260507113614 18 207 8.0 16.1 0.00 0.00 0.00 60 1011.5
20260507113414 18 198 8.0 16.1 0.00 0.00 0.00 61 1011.5
20260507113015 18 191 8.0 16.1 0.00 0.00 0.00 63 1011.6
20260507112615 18 185 9.7 14.5 0.00 0.00 0.00 61 1011.6
20260507112414 18 182 9.7 17.7 0.00 0.00 0.00 61 1011.7
20260507112214 18 182 9.7 17.7 0.00 0.00 0.00 61 1011.7
20260507112015 18 186 8.0 17.7 0.00 0.00 0.00 61 1011.6
20260507111815 18 190 8.0 17.7 0.00 0.00 0.00 61 1011.6
20260507111615 18 197 8.0 17.7 0.00 0.00 0.00 59 1011.6
20260507111414 18 204 8.0 16.1 0.00 0.00 0.00 60 1011.7
20260507111214 18 205 8.0 17.7 0.00 0.00 0.00 60 1011.7
20260507110815 18 196 8.0 17.7 0.00 0.00 0.00 60 1011.7
20260507110615 18 187 8.0 17.7 0.00 0.00 0.00 61 1011.7
20260507110414 18 178 8.0 20.9 0.00 0.00 0.00 61 1011.6
20260507110015 18 179 8.0 20.9 0.00 0.00 0.00 61 1011.6
20260507105815 18 179 8.0 20.9 0.00 0.00 0.00 61 1011.7
20260507105415 18 193 9.7 17.7 0.00 0.00 0.00 61 1011.7
20260507105214 18 188 9.7 22.5 0.00 0.00 0.00 60 1011.7
20260507105015 18 188 9.7 22.5 0.00 0.00 0.00 60 1011.7
20260507104615 19 189 8.0 22.5 0.00 0.00 0.00 59 1011.7
20260507104415 19 190 8.0 22.5 0.00 0.00 0.00 62 1011.7
20260507104214 19 198 8.0 20.9 0.00 0.00 0.00 64 1011.7
20260507104015 18 206 8.0 20.9 0.00 0.00 0.00 61 1011.7
20260507103815 18 213 8.0 20.9 0.00 0.00 0.00 64 1011.7
20260507103615 18 220 8.0 20.9 0.00 0.00 0.00 61 1011.6
20260507103414 18 223 8.0 20.9 0.00 0.00 0.00 61 1011.7
20260507103015 18 218 8.0 19.3 0.00 0.00 0.00 62 1011.7
20260507102815 18 215 8.0 19.3 0.00 0.00 0.00 61 1011.7
20260507102414 18 213 8.0 19.3 0.00 0.00 0.00 61 1011.7
20260507102014 19 208 8.0 16.1 0.00 0.00 0.00 59 1011.6
20260507101814 19 202 8.0 16.1 0.00 0.00 0.00 59 1011.6
20260507101615 20 198 8.0 16.1 0.00 0.00 0.00 59 1011.6
20260507101215 19 213 6.4 16.1 0.00 0.00 0.00 63 1011.5
20260507101015 19 214 6.4 16.1 0.00 0.00 0.00 64 1011.5
20260507100814 18 225 6.4 16.1 0.00 0.00 0.00 63 1011.6
20260507100614 18 221 6.4 16.1 0.00 0.00 0.00 62 1011.5
20260507100415 18 216 6.4 16.1 0.00 0.00 0.00 63 1011.6
20260507100215 18 211 6.4 16.1 0.00 0.00 0.00 61 1011.5
20260507100015 18 211 6.4 16.1 0.00 0.00 0.00 61 1011.6
20260507095614 18 209 8.0 14.5 0.00 0.00 0.00 62 1011.6
20260507095416 18 211 8.0 19.3 0.00 0.00 0.00 62 1011.5
20260507095215 18 211 8.0 19.3 0.00 0.00 0.00 62 1011.5
20260507095015 18 215 8.0 19.3 0.00 0.00 0.00 63 1011.5
20260507094814 18 221 8.0 19.3 0.00 0.00 0.00 63 1011.4
20260507094614 18 224 8.0 19.3 0.00 0.00 0.00 63 1011.4
20260507094415 18 225 8.0 16.1 0.00 0.00 0.00 64 1011.4
20260507094215 18 228 8.0 16.1 0.00 0.00 0.00 64 1011.4
20260507094016 18 225 9.7 17.7 0.00 0.00 0.00 64 1011.4
20260507093814 17 221 9.7 17.7 0.00 0.00 0.00 65 1011.4
20260507093615 17 226 9.7 17.7 0.00 0.00 0.00 64 1011.3
20260507093415 17 221 9.7 19.3 0.00 0.00 0.00 63 1011.4
20260507093214 17 215 9.7 19.3 0.00 0.00 0.00 63 1011.4
20260507093015 18 216 8.0 19.3 0.00 0.00 0.00 64 1011.3
20260507092815 18 218 8.0 19.3 0.00 0.00 0.00 64 1011.3
20260507092414 18 222 6.4 19.3 0.00 0.00 0.00 63 1011.3
20260507092214 18 230 8.0 17.7 0.00 0.00 0.00 63 1011.2
20260507092016 18 235 8.0 14.5 0.00 0.00 0.00 63 1011.2
20260507091615 18 232 8.0 14.5 0.00 0.00 0.00 63 1011.1
20260507091415 18 233 8.0 19.3 0.00 0.00 0.00 63 1011.1
20260507091215 18 233 8.0 19.3 0.00 0.00 0.00 63 1011.1
20260507091016 18 223 8.0 19.3 0.00 0.00 0.00 63 1011.0
20260507090815 18 220 8.0 19.3 0.00 0.00 0.00 63 1011.1
20260507090614 18 219 8.0 19.3 0.00 0.00 0.00 63 1011.0
20260507090414 18 217 8.0 14.5 0.00 0.00 0.00 64 1011.0
20260507090215 18 219 8.0 14.5 0.00 0.00 0.00 63 1010.9
20260507090016 18 224 6.4 16.1 0.00 0.00 0.00 63 1010.9
20260507085814 18 228 6.4 16.1 0.00 0.00 0.00 63 1010.9
20260507085614 18 232 6.4 16.1 0.00 0.00 0.00 62 1010.9
20260507085414 18 238 6.4 16.1 0.00 0.00 0.00 61 1010.8
20260507084814 18 235 6.4 14.5 0.00 0.00 0.00 62 1010.7
20260507084614 18 228 6.4 14.5 0.00 0.00 0.00 61 1010.6
20260507084415 18 216 6.4 14.5 0.00 0.00 0.00 63 1010.6
20260507084214 18 203 8.0 14.5 0.00 0.00 0.00 62 1010.6
20260507083814 18 210 8.0 16.1 0.00 0.00 0.00 63 1010.5
20260507083614 18 219 8.0 16.1 0.00 0.00 0.00 63 1010.5
20260507083415 18 224 8.0 16.1 0.00 0.00 0.00 62 1010.5
20260507083015 18 229 8.0 14.5 0.00 0.00 0.00 63 1010.4
20260507082815 18 226 8.0 14.5 0.00 0.00 0.00 61 1010.4
20260507082414 19 217 8.0 14.5 0.00 0.00 0.00 62 1010.4
20260507082214 18 214 8.0 14.5 0.00 0.00 0.00 62 1010.2
20260507082014 19 221 8.0 14.5 0.00 0.00 0.00 62 1010.3
20260507081815 19 220 8.0 14.5 0.00 0.00 0.00 62 1010.3
20260507081617 19 214 8.0 14.5 0.00 0.00 0.00 63 1010.3
20260507081415 18 204 8.0 14.5 0.00 0.00 0.00 63 1010.3
20260507081214 18 198 6.4 14.5 0.00 0.00 0.00 63 1010.3
20260507081015 18 179 6.4 16.1 0.00 0.00 0.00 63 1010.4
20260507080814 18 176 6.4 16.1 0.00 0.00 0.00 64 1010.4
20260507080615 18 181 6.4 16.1 0.00 0.00 0.00 63 1010.3
20260507080414 18 182 4.8 16.1 0.00 0.00 0.00 64 1010.4
20260507080214 18 181 4.8 17.7 0.00 0.00 0.00 64 1010.3
20260507075614 18 197 6.4 17.7 0.00 0.00 0.00 62 1010.3
20260507075214 18 205 6.4 16.1 0.00 0.00 0.00 62 1010.2
20260507075014 18 193 6.4 16.1 0.00 0.00 0.00 62 1010.2
20260507074814 18 190 6.4 16.1 0.00 0.00 0.00 63 1010.2
20260507074415 18 174 6.4 16.1 0.00 0.00 0.00 64 1010.2
20260507074215 18 181 6.4 16.1 0.00 0.00 0.00 66 1010.3
20260507074015 18 192 6.4 16.1 0.00 0.00 0.00 64 1010.3
20260507073815 18 196 6.4 16.1 0.00 0.00 0.00 66 1010.3
20260507073615 18 207 8.0 14.5 0.00 0.00 0.00 64 1010.3
20260507073414 18 226 8.0 14.5 0.00 0.00 0.00 65 1010.3
20260507073214 18 241 8.0 14.5 0.00 0.00 0.00 65 1010.2
20260507073014 18 238 8.0 14.5 0.00 0.00 0.00 65 1010.3
20260507072814 17 237 8.0 14.5 0.00 0.00 0.00 65 1010.2
20260507072614 18 238 8.0 14.5 0.00 0.00 0.00 64 1010.3
20260507072414 18 229 6.4 14.5 0.00 0.00 0.00 65 1010.3
20260507072214 17 221 6.4 14.5 0.00 0.00 0.00 65 1010.2
20260507072014 17 226 6.4 14.5 0.00 0.00 0.00 65 1010.2
20260507071815 17 230 6.4 14.5 0.00 0.00 0.00 65 1010.3
20260507071614 17 236 6.4 14.5 0.00 0.00 0.00 66 1010.2
20260507071414 17 241 6.4 14.5 0.00 0.00 0.00 65 1010.2
20260507071214 17 246 8.0 14.5 0.00 0.00 0.00 66 1010.2
20260507070815 17 252 8.0 14.5 0.00 0.00 0.00 65 1010.2
20260507070614 17 255 9.7 14.5 0.00 0.00 0.00 66 1010.2
20260507070414 17 256 9.7 14.5 0.00 0.00 0.00 65 1010.2
20260507070215 17 260 8.0 16.1 0.00 0.00 0.00 66 1010.2
20260507070014 17 261 8.0 16.1 0.00 0.00 0.00 65 1010.1
20260507065814 17 261 8.0 16.1 0.00 0.00 0.00 66 1010.2
20260507065614 17 262 8.0 16.1 0.00 0.00 0.00 66 1010.2
20260507065215 17 248 8.0 16.1 0.00 0.00 0.00 69 1010.2
20260507065014 17 234 8.0 16.1 0.00 0.00 0.00 70 1010.1
20260507064814 17 220 8.0 16.1 0.00 0.00 0.00 69 1010.1
20260507064614 17 209 8.0 16.1 0.00 0.00 0.00 70 1010.1
20260507064215 17 197 6.4 19.3 0.00 0.00 0.00 71 1010.1
20260507064014 17 194 6.4 19.3 0.00 0.00 0.00 72 1010.1
20260507063815 17 197 6.4 19.3 0.00 0.00 0.00 72 1010.1
20260507063615 16 195 6.4 19.3 0.00 0.00 0.00 73 1010.1
20260507063415 16 201 6.4 12.9 0.00 0.00 0.00 73 1010.1
20260507063014 16 194 6.4 11.3 0.00 0.00 0.00 75 1010.1
20260507062814 16 195 6.4 11.3 0.00 0.00 0.00 76 1010.1
20260507062615 16 197 6.4 12.9 0.00 0.00 0.00 76 1010.1
20260507062414 16 196 6.4 12.9 0.00 0.00 0.00 75 1010.0
20260507062214 16 198 6.4 12.9 0.00 0.00 0.00 76 1010.0
20260507061814 16 197 6.4 14.5 0.00 0.00 0.00 76 1010.0
20260507061614 16 195 6.4 14.5 0.00 0.00 0.00 75 1010.0
20260507061214 16 188 6.4 16.1 0.00 0.00 0.00 75 1010.0
20260507061015 16 186 6.4 16.1 0.00 0.00 0.00 75 1010.0
20260507060815 16 187 6.4 16.1 0.00 0.00 0.00 75 1010.0
20260507060614 16 187 8.0 16.1 0.00 0.00 0.00 75 1010.0
20260507060414 16 187 8.0 16.1 0.00 0.00 0.00 75 1009.9
20260507060214 16 188 8.0 14.5 0.00 0.00 0.00 75 1009.9
20260507060014 16 191 8.0 14.5 0.00 0.00 0.00 75 1009.9
20260507055815 16 190 8.0 14.5 0.00 0.00 0.00 75 1009.8
20260507055414 16 191 6.4 14.5 0.00 0.00 0.00 74 1009.7
20260507055015 16 194 8.0 14.5 0.00 0.00 0.00 74 1009.7
20260507054814 16 192 8.0 14.5 0.00 0.00 0.00 74 1009.6
20260507054614 16 190 8.0 14.5 0.00 0.00 0.00 74 1009.6
20260507054414 16 189 8.0 14.5 0.00 0.00 0.00 75 1009.6
20260507054214 16 186 8.0 14.5 0.00 0.00 0.00 77 1009.6
20260507054015 15 178 8.0 16.1 0.00 0.00 0.00 77 1009.5
20260507053815 15 173 8.0 16.1 0.00 0.00 0.00 77 1009.5
20260507053615 15 171 8.0 16.1 0.00 0.00 0.00 78 1009.4
20260507053415 15 168 8.0 16.1 0.00 0.00 0.00 78 1009.4
20260507053215 15 164 8.0 17.7 0.00 0.00 0.00 78 1009.3
20260507053014 15 168 8.0 17.7 0.00 0.00 0.00 78 1009.3
20260507052815 15 172 8.0 17.7 0.00 0.00 0.00 78 1009.2
20260507052614 15 171 8.0 17.7 0.00 0.00 0.00 78 1009.3
20260507052216 15 167 8.0 16.1 0.00 0.00 0.00 78 1009.2
20260507052015 15 166 8.0 16.1 0.00 0.00 0.00 79 1009.2
20260507051614 14 165 6.4 16.1 0.00 0.00 0.00 79 1009.2
20260507051414 14 166 6.4 16.1 0.00 0.00 0.00 79 1009.1
20260507051214 14 170 6.4 16.1 0.00 0.00 0.00 79 1009.2
20260507051015 14 172 6.4 16.1 0.00 0.00 0.00 79 1009.1
20260507050814 14 172 6.4 12.9 0.00 0.00 0.00 80 1009.1
20260507050615 14 174 6.4 12.9 0.00 0.00 0.00 80 1009.1
20260507050414 14 176 6.4 16.1 0.00 0.00 0.00 80 1009.0
20260507050209 14 175 6.4 16.1 0.00 0.00 0.00 80 1009.0
20260507050014 14 177 6.4 16.1 0.00 0.00 0.00 80 1009.0
20260507045814 14 181 6.4 16.1 0.00 0.00 0.00 80 1009.0
20260507045614 14 181 6.4 16.1 0.00 0.00 0.00 80 1009.0
20260507045414 14 182 6.4 12.9 0.00 0.00 0.00 81 1009.0
20260507044814 14 179 8.0 14.5 0.00 0.00 0.00 81 1008.9
20260507044615 14 177 8.0 14.5 0.00 0.00 0.00 81 1008.9
20260507044414 14 177 8.0 14.5 0.00 0.00 0.00 81 1008.8
20260507044214 14 173 8.0 14.5 0.00 0.00 0.00 81 1008.8
20260507044015 14 172 8.0 14.5 0.00 0.00 0.00 81 1008.7
20260507043814 14 168 8.0 14.5 0.00 0.00 0.00 80 1008.7
20260507043614 14 167 8.0 16.1 0.00 0.00 0.00 80 1008.6
20260507043415 14 167 8.0 16.1 0.00 0.00 0.00 80 1008.6
20260507043214 14 172 8.0 16.1 0.00 0.00 0.00 80 1008.6
20260507043014 14 179 8.0 16.1 0.00 0.00 0.00 80 1008.5
20260507042814 14 183 8.0 17.7 0.00 0.00 0.00 80 1008.5
20260507042615 14 184 8.0 17.7 0.00 0.00 0.00 80 1008.5
20260507042414 14 184 8.0 17.7 0.00 0.00 0.00 80 1008.5
20260507042214 14 178 8.0 17.7 0.00 0.00 0.00 80 1008.5
20260507042014 14 170 8.0 17.7 0.00 0.00 0.00 80 1008.5
20260507041814 14 169 8.0 16.1 0.00 0.00 0.00 80 1008.4
20260507041614 14 166 8.0 16.1 0.00 0.00 0.00 80 1008.3
20260507041414 14 164 8.0 16.1 0.00 0.00 0.00 80 1008.3
20260507041215 14 166 8.0 16.1 0.00 0.00 0.00 80 1008.3
20260507041015 14 168 8.0 16.1 0.00 0.00 0.00 80 1008.3
20260507040814 14 168 8.0 12.9 0.00 0.00 0.00 80 1008.3
20260507040614 14 169 8.0 12.9 0.00 0.00 0.00 80 1008.3
20260507040414 14 169 8.0 12.9 0.00 0.00 0.00 80 1008.3
20260507040015 14 164 8.0 17.7 0.00 0.00 0.00 80 1008.1
20260507035814 14 164 8.0 17.7 0.00 0.00 0.00 80 1008.0
20260507035414 14 164 8.0 17.7 0.00 0.00 0.00 81 1008.0
20260507035215 14 165 8.0 17.7 0.00 0.00 0.00 81 1008.0
20260507034615 13 178 8.0 17.7 0.00 0.00 0.00 81 1008.1
20260507034214 13 183 8.0 17.7 0.00 0.00 0.00 81 1008.0
20260507034015 13 185 8.0 17.7 0.00 0.00 0.00 80 1008.1
20260507033814 13 185 8.0 16.1 0.00 0.00 0.00 81 1008.0
20260507033614 14 186 8.0 14.5 0.00 0.00 0.00 80 1007.9
20260507033415 14 187 8.0 16.1 0.00 0.00 0.00 80 1007.9
20260507033217 14 184 8.0 16.1 0.00 0.00 0.00 80 1007.8
20260507032814 14 171 8.0 16.1 0.00 0.00 0.00 80 1007.8
20260507032614 14 164 8.0 16.1 0.00 0.00 0.00 80 1007.9
20260507032414 14 160 9.7 16.1 0.00 0.00 0.00 80 1007.9
20260507032214 14 158 9.7 16.1 0.00 0.00 0.00 80 1007.9
20260507032014 14 161 11.3 16.1 0.00 0.00 0.00 80 1007.8
20260507031814 14 168 11.3 17.7 0.00 0.00 0.00 80 1007.8
20260507031614 14 174 11.3 17.7 0.00 0.00 0.00 80 1007.8
20260507031214 14 183 11.3 20.9 0.00 0.00 0.00 80 1007.7
20260507031014 14 186 9.7 20.9 0.00 0.00 0.00 80 1007.7
20260507030414 14 185 8.0 20.9 0.00 0.00 0.00 80 1007.6
20260507030215 13 185 6.4 19.3 0.00 0.00 0.00 80 1007.6
20260507030014 13 185 6.4 19.3 0.00 0.00 0.00 80 1007.6
20260507025814 13 186 6.4 19.3 0.00 0.00 0.00 80 1007.6
20260507025614 13 182 6.4 12.9 0.00 0.00 0.00 79 1007.6
20260507025414 14 173 8.0 12.9 0.00 0.00 0.00 79 1007.7
20260507025215 14 169 8.0 12.9 0.00 0.00 0.00 79 1007.7
20260507025014 14 162 8.0 12.9 0.00 0.00 0.00 79 1007.6
20260507024816 14 161 8.0 16.1 0.00 0.00 0.00 79 1007.6
20260507024617 14 161 8.0 16.1 0.00 0.00 0.00 79 1007.6
20260507024414 14 164 8.0 16.1 0.00 0.00 0.00 79 1007.6
20260507024214 14 167 8.0 16.1 0.00 0.00 0.00 79 1007.6
20260507024016 14 170 6.4 16.1 0.00 0.00 0.00 79 1007.5
20260507023814 14 176 6.4 14.5 0.00 0.00 0.00 79 1007.5
20260507023614 14 181 6.4 12.9 0.00 0.00 0.00 79 1007.5
20260507023014 13 184 4.8 12.9 0.00 0.00 0.00 79 1007.4
20260507022814 13 179 4.8 11.3 0.00 0.00 0.00 79 1007.3
20260507022614 13 176 4.8 11.3 0.00 0.00 0.00 79 1007.3
20260507022414 14 174 6.4 11.3 0.00 0.00 0.00 79 1007.3
20260507022214 14 174 6.4 12.9 0.00 0.00 0.00 79 1007.3
20260507022014 14 171 6.4 14.5 0.00 0.00 0.00 79 1007.4
20260507021814 14 170 8.0 14.5 0.00 0.00 0.00 79 1007.3
20260507021615 14 168 8.0 14.5 0.00 0.00 0.00 78 1007.5
20260507021414 14 164 8.0 16.1 0.00 0.00 0.00 78 1007.5
20260507021216 14 162 8.0 16.1 0.00 0.00 0.00 78 1007.5
20260507021015 14 161 8.0 16.1 0.00 0.00 0.00 78 1007.4
20260507020815 14 160 8.0 16.1 0.00 0.00 0.00 78 1007.4
20260507020616 14 159 8.0 16.1 0.00 0.00 0.00 78 1007.4
20260507020414 14 160 8.0 12.9 0.00 0.00 0.00 78 1007.4
20260507020215 14 156 8.0 16.1 0.00 0.00 0.00 77 1007.5
20260507020014 14 154 8.0 16.1 0.00 0.00 0.00 77 1007.4
20260507015817 14 153 8.0 16.1 0.00 0.00 0.00 77 1007.4
20260507015614 15 153 8.0 16.1 0.00 0.00 0.00 77 1007.4
20260507015214 15 161 9.7 14.5 0.00 0.00 0.00 77 1007.3
20260507015014 15 168 9.7 14.5 0.00 0.00 0.00 77 1007.3
20260507014815 14 173 9.7 16.1 0.00 0.00 0.00 78 1007.3
20260507014614 14 178 9.7 19.3 0.00 0.00 0.00 78 1007.3
20260507014415 14 179 9.7 19.3 0.00 0.00 0.00 78 1007.3
20260507014014 15 182 9.7 19.3 0.00 0.00 0.00 77 1007.2
20260507013815 15 181 9.7 20.9 0.00 0.00 0.00 77 1007.3
20260507013615 15 183 9.7 20.9 0.00 0.00 0.00 78 1007.2
20260507013415 15 182 9.7 20.9 0.00 0.00 0.00 78 1007.2
20260507013216 15 182 9.7 20.9 0.00 0.00 0.00 78 1007.1
20260507012815 14 182 9.7 17.7 0.00 0.00 0.00 78 1007.2
20260507012615 14 179 9.7 17.7 0.00 0.00 0.00 78 1007.2
20260507012417 14 178 11.3 17.7 0.00 0.00 0.00 78 1007.2
20260507012016 14 177 11.3 17.7 0.00 0.00 0.00 78 1007.1
20260507011614 15 179 11.3 17.7 0.00 0.00 0.00 77 1007.0
20260507011416 15 179 11.3 22.5 0.00 0.00 0.00 77 1007.0
20260507011216 15 178 11.3 22.5 0.00 0.00 0.00 77 1007.0
20260507011014 15 175 11.3 22.5 0.00 0.00 0.00 77 1007.0
20260507010815 15 174 11.3 22.5 0.00 0.00 0.00 77 1006.9
20260507010614 15 171 11.3 24.1 0.00 0.00 0.00 76 1007.0
20260507010016 15 172 11.3 24.1 0.00 0.00 0.00 76 1006.9
20260507005816 15 173 11.3 24.1 0.00 0.00 0.00 76 1006.9
20260507005414 15 178 11.3 20.9 0.00 0.00 0.00 76 1006.8
20260507005214 15 179 11.3 20.9 0.00 0.00 0.00 76 1006.8
20260507004815 15 182 12.9 19.3 0.00 0.00 0.00 75 1006.6
20260507004615 15 182 12.9 19.3 0.00 0.00 0.00 75 1006.6
20260507004415 15 179 12.9 24.1 0.00 0.00 0.00 74 1006.5
20260507004214 15 176 14.5 24.1 0.00 0.00 0.00 74 1006.6
20260507003815 15 167 14.5 27.4 0.00 0.00 0.00 74 1006.5
20260507003614 15 166 14.5 27.4 0.00 0.00 0.00 73 1006.4
20260507003414 15 169 14.5 27.4 0.00 0.00 0.00 73 1006.4
20260507003214 15 169 16.1 27.4 0.00 0.00 0.00 73 1006.4
20260507003014 15 167 16.1 32.2 0.00 0.00 0.00 73 1006.5
20260507002814 16 164 16.1 32.2 0.00 0.00 0.00 73 1006.5
20260507002615 16 161 16.1 32.2 0.00 0.00 0.00 73 1006.5
20260507002414 16 156 16.1 32.2 0.00 0.00 0.00 72 1006.4
20260507002215 16 153 16.1 32.2 0.00 0.00 0.00 72 1006.3
20260507002014 16 152 16.1 29.0 0.00 0.00 0.00 72 1006.3
20260507001815 16 151 14.5 27.4 0.00 0.00 0.00 72 1006.3
20260507001615 16 149 14.5 29.0 0.00 0.00 0.00 72 1006.3
20260507001414 16 150 14.5 29.0 0.00 0.00 0.00 72 1006.2
20260507001214 16 150 12.9 29.0 0.00 0.00 0.00 72 1006.1
20260507001014 16 152 12.9 29.0 0.00 0.00 0.00 72 1006.1
20260507000614 16 157 14.5 22.5 0.00 0.00 0.00 72 1006.0
20260507000413 16 157 14.5 22.5 0.00 0.00 0.00 71 1006.0
20260507000214 16 158 14.5 22.5 0.00 0.00 0.00 71 1006.0
20260506235814 16 155 16.1 25.7 0.00 0.00 0.00 71 1006.0
20260506235614 16 153 16.1 29.0 0.00 0.00 0.00 71 1006.0
20260506235414 16 152 16.1 29.0 0.00 0.00 0.00 71 1006.0
20260506235214 16 150 16.1 29.0 0.00 0.00 0.00 71 1006.0
20260506235014 16 148 16.1 29.0 0.00 0.00 0.00 71 1006.0
20260506234614 16 146 16.1 29.0 0.00 0.00 0.00 71 1005.9
20260506234415 16 144 16.1 29.0 0.00 0.00 0.00 71 1005.9
20260506234014 16 146 14.5 29.0 0.00 0.00 0.00 71 1005.8
20260506233815 16 147 14.5 29.0 0.00 0.00 0.00 71 1005.8
20260506233614 16 147 14.5 29.0 0.00 0.00 0.00 71 1005.8
20260506233413 16 149 14.5 29.0 0.00 0.00 0.00 71 1005.8
20260506233214 16 152 16.1 27.4 0.00 0.00 0.00 71 1005.7
20260506233013 16 153 16.1 30.6 0.00 0.00 0.00 71 1005.7
20260506232614 16 154 16.1 30.6 0.00 0.00 0.00 70 1005.8
20260506232214 16 154 16.1 30.6 0.00 0.00 0.00 70 1005.8
20260506232014 16 153 14.5 27.4 0.00 0.00 0.00 70 1005.8